Weather History for Crestview, FL

Change the Weather History Date:

Sunday, December 2, 2012

  Actual Average Record
Temperature  
Mean Temperature 58 °F -  
Max Temperature 75 °F - - ()
Min Temperature 42 °F - - ()
Degree Days  
Heating Degree Days 6    
Growing Degree Days 8 (Base 50)    
Moisture  
Dew Point 50 °F    
Average Humidity 95    
Maximum Humidity 100    
Minimum Humidity 48    
Precipitation  
Precipitation 0.00 in - - ()
Sea Level Pressure  
Sea Level Pressure 30.28 in    
Wind  
Wind Speed 1 mph (NE)    
Max Wind Speed 8 mph    
Max Gust Speed -    
Visibility 3 miles    
Events Fog    
T = Trace of Precipitation, MM = Missing Value Source: NWS Daily Summary

Daily Weather History Graph

Daily Weather History Graph

Search for Another Location

Airport:

Trip Planner

Search our weather history database for the weather conditions in past years. The results will help you decide how hot, cold, wet, or windy it might be!

Date:

Astronomy

Dec. 02, 2012 Rise Set
Actual Time 6:26 AM CST 4:44 PM CST
Civil Twilight 6:00 AM CST 5:10 PM CST
Nautical Twilight 5:30 AM CST 5:40 PM CST
Astronomical Twilight 5:01 AM CST 6:09 PM CST
Moon 8:24 PM CST (12/2) 9:21 AM CST (12/2)
Length of Visible Light 11h 09m
Length of Day
10h 17m
Waning Gibbous, 85% of the Moon is Illuminated
Dec 2
Waning Gibbous
Dec 6
Last Quarter
Dec 13
New
Dec 19
First Quarter
Dec 28
Full

Hourly Weather History & Observations

Time (CST) Temp. Windchill Dew Point Humidity Pressure Visibility Wind Dir Wind Speed Gust Speed Precip Events Conditions
12:55 AM 48.0 °F - 47.5 °F 98% 30.27 in 10.0 mi Calm Calm - N/A   Clear
1:55 AM 47.3 °F - 46.9 °F 99% 30.27 in 4.0 mi Calm Calm - N/A   Clear
2:55 AM 45.1 °F - 44.4 °F 97% 30.26 in 10.0 mi Calm Calm - N/A   Clear
3:38 AM 42.8 °F 41.1 °F 42.8 °F 100% 30.28 in 2.0 mi NNW 3.5 mph - N/A   Clear
3:39 AM 42.8 °F 41.1 °F 42.8 °F 100% 30.28 in 1.8 mi NNW 3.5 mph - N/A   Clear
3:41 AM 42.8 °F 41.1 °F 42.8 °F 100% 30.28 in 1.2 mi NNW 3.5 mph - N/A   Clear
3:42 AM 42.8 °F 41.1 °F 42.8 °F 100% 30.28 in 1.0 mi NNW 3.5 mph - N/A   Clear
3:44 AM 44.6 °F 43.1 °F 42.8 °F 93% 30.28 in 0.8 mi NNW 3.5 mph - N/A   Clear
3:51 AM 44.6 °F 43.1 °F 44.6 °F 100% 30.28 in 1.0 mi North 3.5 mph - N/A   Clear
3:55 AM 45.0 °F 43.5 °F 44.4 °F 98% 30.28 in 1.2 mi North 3.5 mph - N/A   Clear
3:56 AM 44.6 °F 43.1 °F 44.6 °F 100% 30.28 in 2.0 mi North 3.5 mph - N/A   Clear
3:57 AM 44.6 °F 43.1 °F 42.8 °F 93% 30.28 in 2.5 mi North 3.5 mph - N/A   Clear
3:58 AM 44.6 °F - 42.8 °F 93% 30.28 in 3.0 mi Calm Calm - N/A   Clear
4:51 AM 44.6 °F - 42.8 °F 93% 30.28 in 2.5 mi Calm Calm - N/A   Clear
4:52 AM 44.6 °F - 42.8 °F 93% 30.28 in 2.0 mi Calm Calm - N/A   Clear
4:55 AM 44.6 °F - 42.8 °F 93% 30.28 in 1.2 mi Calm Calm - N/A   Clear
4:59 AM 44.6 °F - 42.8 °F 93% 30.28 in 1.0 mi Calm Calm - N/A   Clear
5:00 AM 44.6 °F - 42.8 °F 93% 30.28 in 1.2 mi Calm Calm - N/A   Clear
5:01 AM 44.6 °F - 44.6 °F 100% 30.28 in 1.5 mi Calm Calm - N/A   Clear
5:03 AM 44.6 °F - 44.6 °F 100% 30.28 in 2.0 mi Calm Calm - N/A   Clear
5:04 AM 44.6 °F - 44.6 °F 100% 30.28 in 2.5 mi Calm Calm - N/A   Clear
5:05 AM 44.6 °F - 44.6 °F 100% 30.29 in 3.0 mi Calm Calm - N/A   Clear
5:39 AM 46.4 °F - 46.4 °F 100% 30.29 in 2.5 mi Calm Calm - N/A   Clear
5:40 AM 46.4 °F - 46.4 °F 100% 30.29 in 2.0 mi Calm Calm - N/A   Clear
5:41 AM 46.4 °F - 46.4 °F 100% 30.29 in 1.8 mi Calm Calm - N/A   Clear
5:44 AM 44.6 °F - 44.6 °F 100% 30.30 in 1.2 mi Calm Calm - N/A   Clear
5:50 AM 44.6 °F - 44.6 °F 100% 30.30 in 1.0 mi Calm Calm - N/A   Clear
5:51 AM 44.6 °F - 44.6 °F 100% 30.30 in 0.8 mi Calm Calm - N/A   Clear
5:54 AM 46.4 °F - 46.4 °F 100% 30.30 in 0.5 mi Calm Calm - N/A Fog Fog
5:55 AM 45.7 °F - 45.3 °F 99% 30.30 in 0.8 mi Calm Calm - N/A   Clear
5:59 AM 46.4 °F - 46.4 °F 100% 30.30 in 0.5 mi Calm Calm - N/A Fog Fog
6:12 AM 46.4 °F - 44.6 °F 93% 30.31 in 0.8 mi Calm Calm - N/A   Mostly Cloudy
6:14 AM 46.4 °F - 44.6 °F 93% 30.31 in 1.0 mi Calm Calm - N/A   Mostly Cloudy
6:15 AM 46.4 °F - 46.4 °F 100% 30.31 in 1.2 mi Calm Calm - N/A   Mostly Cloudy
6:17 AM 46.4 °F - 46.4 °F 100% 30.31 in 1.5 mi Calm Calm - N/A   Mostly Cloudy
6:18 AM 46.4 °F - 46.4 °F 100% 30.31 in 2.0 mi Calm Calm - N/A   Mostly Cloudy
6:19 AM 46.4 °F - 46.4 °F 100% 30.31 in 2.5 mi Calm Calm - N/A   Mostly Cloudy
6:20 AM 46.4 °F - 46.4 °F 100% 30.31 in 3.0 mi Calm Calm - N/A   Mostly Cloudy
6:23 AM 46.4 °F - 46.4 °F 100% 30.31 in 6.0 mi Calm Calm - N/A   Overcast
6:52 AM 50.0 °F - 48.2 °F 94% 30.32 in 9.0 mi North 3.5 mph - N/A   Overcast
6:55 AM 49.1 °F - 48.9 °F 99% 30.32 in 9.0 mi North 3.5 mph - N/A   Overcast
7:30 AM 51.8 °F - 51.8 °F 100% 30.33 in 10.0 mi ENE 3.5 mph - N/A   Overcast
7:55 AM 53.6 °F - 53.2 °F 99% 30.33 in 10.0 mi NE 3.5 mph - N/A   Overcast
7:58 AM 53.6 °F - 53.6 °F 100% 30.33 in 10.0 mi ENE 3.5 mph - N/A   Overcast
8:55 AM 58.5 °F - 57.7 °F 97% 30.34 in 10.0 mi East 4.6 mph - N/A   Overcast
9:17 AM 62.6 °F - 57.2 °F 82% 30.35 in 10.0 mi ENE 3.5 mph - N/A   Mostly Cloudy
9:25 AM 62.6 °F - 59.0 °F 88% 30.34 in 10.0 mi ENE 3.5 mph - N/A   Mostly Cloudy
9:55 AM 65.3 °F - 59.2 °F 81% 30.34 in 10.0 mi NE 3.5 mph - N/A   Partly Cloudy
10:55 AM 71.1 °F - 58.3 °F 64% 30.32 in 10.0 mi Calm Calm - N/A   Partly Cloudy
11:55 AM 73.2 °F - 56.5 °F 56% 30.29 in 10.0 mi SE 3.5 mph - N/A   Scattered Clouds
12:55 PM 73.8 °F - 55.6 °F 53% 30.26 in 10.0 mi South 3.5 mph - N/A   Scattered Clouds
1:55 PM 75.9 °F - 54.9 °F 48% 30.25 in 10.0 mi Variable 3.5 mph - N/A   Mostly Cloudy
2:55 PM 75.4 °F - 54.3 °F 48% 30.24 in 10.0 mi SSE 6.9 mph - N/A   Mostly Cloudy
3:55 PM 73.8 °F - 55.6 °F 53% 30.24 in 10.0 mi South 8.1 mph - N/A   Mostly Cloudy
4:55 PM 66.2 °F - 57.0 °F 72% 30.24 in 10.0 mi South 5.8 mph - N/A   Clear
5:55 PM 62.4 °F - 58.3 °F 86% 30.25 in 10.0 mi SSE 5.8 mph - N/A   Clear
6:55 PM 59.9 °F - 58.3 °F 94% 30.25 in 10.0 mi South 4.6 mph - N/A   Clear
7:55 PM 57.4 °F - 56.8 °F 98% 30.26 in 10.0 mi Calm Calm - N/A   Clear
8:32 PM 55.4 °F - 55.4 °F 100% 30.26 in 2.5 mi Calm Calm - N/A   Clear
8:34 PM 55.4 °F - 55.4 °F 100% 30.26 in 2.0 mi Calm Calm - N/A   Clear
8:39 PM 53.6 °F - 53.6 °F 100% 30.26 in 2.5 mi Calm Calm - N/A   Clear
8:42 PM 53.6 °F - 53.6 °F 100% 30.26 in 2.0 mi Calm Calm - N/A   Clear
8:43 PM 53.6 °F - 53.6 °F 100% 30.27 in 1.5 mi Calm Calm - N/A   Clear
8:44 PM 53.6 °F - 53.6 °F 100% 30.27 in 1.2 mi Calm Calm - N/A   Clear
8:45 PM 53.6 °F - 53.6 °F 100% 30.27 in 1.0 mi Calm Calm - N/A   Clear
8:46 PM 53.6 °F - 53.6 °F 100% 30.27 in 0.8 mi Calm Calm - N/A   Clear
8:49 PM 53.6 °F - 53.6 °F 100% 30.27 in 0.5 mi Calm Calm - N/A Fog Fog
8:54 PM 53.6 °F - 51.8 °F 94% 30.27 in 0.8 mi Calm Calm - N/A   Clear
8:55 PM 52.9 °F - 52.5 °F 99% 30.27 in 0.5 mi Calm Calm - N/A Fog Fog
8:57 PM 53.6 °F - 53.6 °F 100% 30.27 in 1.0 mi Calm Calm - N/A   Clear
8:58 PM 53.6 °F - 53.6 °F 100% 30.27 in 1.2 mi Calm Calm - N/A   Clear
8:59 PM 53.6 °F - 53.6 °F 100% 30.27 in 1.5 mi Calm Calm - N/A   Clear
9:07 PM 53.6 °F - 51.8 °F 94% 30.26 in 1.2 mi Calm Calm - N/A   Clear
9:08 PM 53.6 °F - 51.8 °F 94% 30.26 in 1.0 mi Calm Calm - N/A   Clear
9:10 PM 53.6 °F - 51.8 °F 94% 30.26 in 0.8 mi Calm Calm - N/A   Clear
9:13 PM 53.6 °F - 51.8 °F 94% 30.26 in 0.5 mi Calm Calm - N/A Fog Fog
9:17 PM 51.8 °F - 51.8 °F 100% 30.26 in 0.8 mi Calm Calm - N/A   Clear
9:20 PM 51.8 °F - 51.8 °F 100% 30.26 in 1.0 mi Calm Calm - N/A   Clear
9:22 PM 51.8 °F - 51.8 °F 100% 30.26 in 1.5 mi Calm Calm - N/A   Clear
9:27 PM 51.8 °F - 51.8 °F 100% 30.26 in 1.2 mi Calm Calm - N/A   Clear
9:31 PM 51.8 °F - 51.8 °F 100% 30.26 in 1.0 mi Calm Calm - N/A   Clear
9:35 PM 51.8 °F - 51.8 °F 100% 30.26 in 1.2 mi Calm Calm - N/A   Clear
9:43 PM 51.8 °F - 51.8 °F 100% 30.26 in 1.0 mi Calm Calm - N/A   Clear
9:47 PM 51.8 °F - 51.8 °F 100% 30.26 in 0.8 mi Calm Calm - N/A   Clear
9:55 PM 51.8 °F - 51.4 °F 99% 30.26 in 0.8 mi Calm Calm - N/A   Clear
10:06 PM 51.8 °F - 51.8 °F 100% 30.25 in 1.0 mi Calm Calm - N/A   Clear
10:12 PM 51.8 °F - 51.8 °F 100% 30.26 in 1.2 mi Calm Calm - N/A   Clear
10:14 PM 51.8 °F - 51.8 °F 100% 30.26 in 1.5 mi Calm Calm - N/A   Clear
10:21 PM 51.8 °F - 51.8 °F 100% 30.26 in 1.2 mi Calm Calm - N/A   Clear
10:24 PM 50.0 °F - 50.0 °F 100% 30.26 in 1.0 mi Calm Calm - N/A   Clear
10:29 PM 50.0 °F - 50.0 °F 100% 30.26 in 0.8 mi Calm Calm - N/A   Clear
10:40 PM 50.0 °F - 50.0 °F 100% 30.26 in 1.0 mi Calm Calm - N/A   Clear
10:46 PM 50.0 °F - 50.0 °F 100% 30.26 in 1.2 mi Calm Calm - N/A   Clear
10:47 PM 50.0 °F - 50.0 °F 100% 30.26 in 1.0 mi Calm Calm - N/A   Clear
10:50 PM 50.0 °F - 50.0 °F 100% 30.26 in 0.8 mi Calm Calm - N/A   Clear
10:55 PM 50.2 °F - 49.8 °F 99% 30.26 in 0.8 mi Calm Calm - N/A   Clear
10:56 PM 50.0 °F - 50.0 °F 100% 30.26 in 1.0 mi Calm Calm - N/A   Clear
10:59 PM 50.0 °F - 50.0 °F 100% 30.26 in 0.8 mi Calm Calm - N/A   Clear
11:03 PM 50.0 °F - 50.0 °F 100% 30.26 in 0.5 mi Calm Calm - N/A Fog Fog
11:41 PM 50.0 °F - 50.0 °F 100% 30.25 in 0.8 mi Calm Calm - N/A   Clear
11:45 PM 50.0 °F - 48.2 °F 94% 30.25 in 1.0 mi Calm Calm - N/A   Clear
11:50 PM 50.0 °F - 48.2 °F 94% 30.25 in 0.8 mi Calm Calm - N/A   Clear
11:55 PM 49.5 °F - 49.3 °F 99% 30.25 in 0.8 mi Calm Calm - N/A   Clear